Home > Weather > Baltimore > Past weeks

Flag for USA Past Weather in Baltimore, Maryland, USA — Yesterday and Last 2 Weeks

Now
84 °F

Broken clouds.


Feels Like: 89 °F
Forecast: 76 / 95 °F
Wind: 3 mph from North

Location: Baltimore-Washington International Airport

Current Time: Jul 26, 2016 at 10:12:00 AM

Latest Report: Jul 26, 2016 at 8:54 AM


Visibility: 10 mi

Pressure: 29.95 "Hg

Humidity: 65%

Dew Point: 71 °F

Location of BaltimoreLocation

Past Weather in Baltimore — Graph

°F

Baltimore Temperature Yesterday

Maximum temperature yesterday: 98 °F (at 1:54 PM)
Minimum temperature yesterday: 77 °F (at 4:54 AM)
Average temperature yesterday: 87 °F

High & Low Weather Summary for the Past Weeks

 TemperatureHumidityPressure
High98 °F (Jul 23, 2:54 PM)100% (Jul 14, 6:01 AM)30.21 "Hg (Jul 14, 6:01 AM)
Low65 °F (Jul 21, 2:54 AM)35% (Jul 19, 5:54 PM)29.82 "Hg (Jul 25, 4:54 PM)
Average81 °F66%30.02 "Hg
* Reported Jul 11 8:54 AM — Jul 26 8:54 AM, Baltimore, Weather by CustomWeather, © 2016

Note: Actual official high and low records may vary slightly from our data, if they occured in-between our weather recording intervals... More about our weather records

Advertising

Baltimore Weather History for the Previous 24 Hours

Scroll right to see more
 ConditionsComfort  
Time TempWeatherWind HumidityBarometerVisibility
8:54 AM
Tue, Jul 26
84 °FBroken clouds.3 mph65%29.95 "Hg10 mi
7:54 AM79 °FBroken clouds.3 mph77%29.95 "Hg10 mi
6:54 AM76 °FPartly cloudy.3 mph82%29.93 "Hg10 mi
5:54 AM74 °FPassing clouds.3 mph88%29.92 "Hg10 mi
4:54 AM75 °FPassing clouds.3 mph88%29.91 "Hg10 mi
3:54 AM76 °FPassing clouds.3 mph88%29.90 "Hg10 mi
2:54 AM76 °FPassing clouds.No wind85%29.91 "Hg10 mi
1:54 AM76 °FPartly cloudy.No wind85%29.91 "Hg10 mi
12:54 AM79 °FPartly cloudy.No wind77%29.91 "Hg10 mi
11:54 PM
Mon, Jul 25
78 °FPassing clouds.6 mph79%29.90 "Hg10 mi
10:54 PM80 °FPartly cloudy.12 mph69%29.91 "Hg10 mi
9:54 PM84 °FMostly cloudy.12 mph61%29.91 "Hg10 mi
8:54 PM88 °FBroken clouds.7 mph55%29.87 "Hg10 mi
7:54 PM91 °FBroken clouds.5 mph49%29.85 "Hg10 mi
6:54 PM93 °FBroken clouds.7 mph46%29.83 "Hg10 mi
5:54 PM95 °FPartly sunny.9 mph47%29.83 "Hg10 mi
4:54 PM96 °FPartly sunny.8 mph47%29.82 "Hg10 mi
3:54 PM98 °FBroken clouds.9 mph43%29.84 "Hg10 mi
2:54 PM98 °FScattered clouds.9 mph42%29.86 "Hg10 mi
1:54 PM98 °FScattered clouds.7 mph43%29.89 "Hg10 mi
12:54 PM96 °FScattered clouds.8 mph46%29.92 "Hg10 mi
11:54 AM94 °FScattered clouds.5 mph51%29.93 "Hg9 mi
10:54 AM93 °FScattered clouds.6 mph50%29.95 "Hg10 mi
Weather by CustomWeather, © 2016

See weather overviewHow to use our weather pages